Location: *
(50.3440°N, 18.6237°E)
Time: 13:28:21
(UTC+00:00)

IRS-1C Rocket - Pass Details

Date: 30 November 2020
Orbit: 800 x 806 km, 99.0° (Epoch: 26 January)

Event Time Altitude Azimuth Distance (km) Brightness Sun altitude
Rises 16:23:52 0° 150° (SSE) 3,311 7.1 -15.0°
Reaches altitude 10° 16:26:13 10° 146° (SE) 2,384 6.4 -15.3°
Maximum altitude 16:31:22 58° 68° (ENE) 938 4.1 -16.1°
Drops below altitude 10° 16:36:34 10° 351° (N) 2,400 6.5 -16.9°
Sets 16:38:56 0° 348° (NNW) 3,334 7.3 -17.3°
